TimePST,TemperatureF,Dew PointF,Humidity,Sea Level PressureIn,VisibilityMPH,Wind Direction,Wind SpeedMPH,Gust SpeedMPH,PrecipitationIn,Events,Conditions,WindDirDegrees,DateUTC
12:55 AM,37.9,32.0,79,30.26,10.0,NW,3.5,-,N/A,,Clear,310,2013-01-01 08:55:00
1:55 AM,41.0,33.1,73,30.27,10.0,Calm,Calm,-,N/A,,Clear,0,2013-01-01 09:55:00
3:55 AM,39.9,32.0,73,30.24,10.0,Calm,Calm,-,N/A,,Clear,0,2013-01-01 11:55:00
4:55 AM,39.9,32.0,73,30.23,10.0,Calm,Calm,-,N/A,,Clear,0,2013-01-01 12:55:00
5:55 AM,37.9,30.9,76,30.23,10.0,West,5.8,-,N/A,,Clear,280,2013-01-01 13:55:00
7:55 AM,42.1,34.0,73,30.25,10.0,WNW,3.5,-,N/A,,Overcast,290,2013-01-01 15:55:00
8:55 AM,48.0,36.0,63,30.27,10.0,Calm,Calm,-,N/A,,Mostly Cloudy,0,2013-01-01 16:55:00
10:55 AM,57.9,28.9,33,30.23,10.0,ENE,11.5,-,N/A,,Overcast,70,2013-01-01 18:55:00
11:55 AM,61.0,21.0,21,30.18,10.0,ENE,17.3,-,N/A,,Overcast,60,2013-01-01 19:55:00
12:55 PM,61.0,21.9,22,30.15,10.0,NE,17.3,24.2,N/A,,Mostly Cloudy,50,2013-01-01 20:55:00
2:55 PM,61.0,17.1,18,30.14,10.0,ENE,21.9,31.1,N/A,,Mostly Cloudy,60,2013-01-01 22:55:00
3:55 PM,60.1,18.0,20,30.14,10.0,ENE,15.0,-,N/A,,Mostly Cloudy,60,2013-01-01 23:55:00
4:55 PM,60.1,16.0,18,30.14,10.0,ENE,15.0,-,N/A,,Overcast,60,2013-01-02 00:55:00
5:55 PM,59.0,16.0,19,30.15,10.0,ENE,13.8,-,N/A,,Overcast,60,2013-01-02 01:55:00
6:55 PM,57.9,15.1,19,30.17,10.0,ENE,15.0,23.0,N/A,,Clear,70,2013-01-02 02:55:00
7:55 PM,57.9,14.0,18,30.18,10.0,East,11.5,-,N/A,,Clear,80,2013-01-02 03:55:00
8:55 PM,57.0,12.9,18,30.18,10.0,ENE,12.7,23.0,N/A,,Clear,70,2013-01-02 04:55:00
9:55 PM,57.0,12.9,18,30.19,10.0,ENE,13.8,24.2,N/A,,Clear,60,2013-01-02 05:55:00
10:55 PM,57.0,12.9,18,30.19,10.0,ENE,16.1,25.3,N/A,,Clear,70,2013-01-02 06:55:00
11:55 PM,55.9,12.9,18,30.18,10.0,East,11.5,23.0,N/A,,Clear,80,2013-01-02 07:55:00